Tracking 17884 objects as of 5-December-2016
HD Live streaming from Space Station
objects crossing your sky now

RIGIDSPHERE 2 (LCS 4)

Track RIGIDSPHERE 2 (LCS 4) now!
10-day predictions
RIGIDSPHERE 2 (LCS 4) is classified as:


NORAD ID: 5398
Int'l Code: 1971-067E
Perigee: 742.4 km
Apogee: 831.9 km
Inclination: 87.6 °
Period: 100.5 minutes
Semi major axis: 7158 km
RCS: 0.9311 m2 (medium)
Launch date: August 7, 1971
Source: United States (US)
Launch site: AIR FORCE WESTERN TEST RANGE (AFWTR)
Your satellite tracking list
Your tracking list is empty





NASA's NSSDC Master Catalog

Two Line Element Set (TLE):
1 05398U 71067E   16339.55772601  .00000190  00000-0  60813-4 0  9993
2 05398  87.6270 219.9471 0062562 206.2555 153.5467 14.33516757374902
Source of the keplerian elements: AFSPC